Tracking 18874 objects as of 17-Dec-2017
HD Live streaming from Space Station
objects crossing your sky now

MERIDIAN 3

Track MERIDIAN 3 now!
MERIDIAN 3 is classified as:


NORAD ID: 37212
Int'l Code: 2010-058A
Perigee: 1,619.6 km
Apogee: 38,748.6 km
Inclination: 63.3 °
Period: 717.8 minutes
Semi major axis: 26555 km
RCS: 24.3984 m2 (large)
Launch date: November 2, 2010
Source: Commonwealth of Independent States (former USSR) (CIS)
Launch site: PLESETSK MISSILE AND SPACE COMPLEX (PKMTR)

MERIDIAN 3 is a Russian military communications satellite.
aabbcc
Your satellite tracking list
Your tracking list is empty




NASA's NSSDC Master Catalog

Two Line Element Set (TLE):
1 37212U 10058A   17350.60201127 -.00000068  00000-0  10000-3 0  9993
2 37212  63.3428  52.3823 6990934 274.2110 286.6576  2.00622962 52177
Source of the keplerian elements: AFSPC